SDGSAT 1 (49387 NORAD) Tracking and Keplerian Element Data

This shows tracking and keplerian element data for the satellite.

Feedback or suggestion? Click here.




ElementValue
Catalog49387
NameSDGSAT 1
Epoch Orbit1095
Epoch Day16.208148
Epoch Year2022
RAAN78.5789
Inclination97.4881
Eccentricity0.0011387
Argument of Perigee28.7789
Mean Anonmoly58.5514
Mean Motion15.19408886
Decay Rate1.105E-05
L11 49387U 21100A 22016.20814800 .00001105 00000+0 55410-4 0 9994
L22 49387 97.4881 78.5789 0011387 28.7789 58.5514 15.19408886 10958

Live tracking and technical data element details for SDGSAT 1 (NORAD 49387). SDGSAT 1 can be tracked NOW for your location showing map with azimuth and elevation plus other details from your city location.

Track the satellite on the map from your city or location and see movement details for azimuth, elevation, latitude, longitude, range, height, and movement on the map or in text.







IsCatalogInMostPopularTable: catalog: 49387, numindb: 6
Update: records affected: 1



GetName: 49387 SDGSAT 1

Hit Count: updated at: Thu, 20 Jan 2022 17:14:35 GMT